CZ-4 DEB

基本信息
目录编号:
20879
目录名称:
CZ-4 DEB
国际标识:
1990-081AP
轨道中心:
EARTH
物体状态:
在轨
发射日期:
1990-09-03 UTC
轨道信息
数据来源: 国际轨道数据
星历时间: 2026-07-13T21:04:39+0800
半长轴: 7253.522km
偏心率: 0.0099039
轨道倾角: 99.413°
近地点辐角: 97.025°
升交点赤经: 39.019°
平近点角: 318.635°
近地点: 803.546km
远地点: 947.224km
周期: 102.467分钟
每日圈数: 14.053334
详细信息
发射场:
TSC
轨道高度:
LEO
数据来源:
AOE Integration Group
参考系:
TEME
时间系统:
UTC
历元类型:
SGP4
2D轨道图
3D轨道图
轨道高度分析图
轨道倾角分析图
轨道综合分析图
查看轨道综合分析图